COSMOS 1275 DEB, 39967

Orbit data source: Space-Track

COSMOS 1275 DEB, 39967 is space debris in LEO originally from a launch on Thu, 04 Jun 1981 UTC launched from the Plesetsk Missile And Space Complex (PKMTR). Debris objects in space refer to the collection of defunct objects orbiting the Earth. Examples of debris include non-operational satellites, rocket bodies, and fragments generated from explosions, collisions, or faulty payload assembly.

Loading next visibility...
Identifier
39967, 1981-053PD
Orbit
LEO
Country
Flag of CISCIS
Related business
Manufacturer
Unknown
Mission
Spacecraft
Bus & Motor
Unknown
Mass
Unknown
Launch date (UTC)
1981-06-04 (45 years ago)
Launch vehicle
Unknown
Launch site
Plesetsk Missile And Space Complex (PKMTR)
Object type
Payload
Rocket body
Debris
Shape & HBR
Unknown shape, 0.1 m
Radar Cross Section
Small (<0.1 m²)

Expand to show TLE details & history
Last TLE update: 14 hours ago

TLE from 14 hours ago
0 COSMOS 1275 DEB
1 39967U 81053PD  25342.80251782  .00002011  00000-0  14174-2 0  9993
2 39967  82.9232 173.4237 0031575   1.3673 358.7576 13.97335999584859
Epoch: 2025-12-08T19:15Z
TLE epoch observation values (Epoch: 2025-12-08T19:15:37.539Z)
Latitude
-0.00003°
Longitude
166.72096°
Altitude
882.976 km
Speed
7.422 km/s
True Right ascension
11h 33m 41s
True Declination
0° 00' 00"
Sunlit
Object was in daylight at epoch
Visualization orbit readout
Latitude
Unknown
Longitude
Unknown
Altitude
Unknown
Speed
Unknown
Apparent Right ascension
Unknown
Apparent Declination
Unknown
Sunlit
N/A
Visualization observer readout
Local Sidereal Time
07:21:49
Azimuth
Unknown
Elevation
Unknown
Doppler factor
Unknown
Orbital elements
Apogee altitude
923.135 km
Perigee altitude
877.172 km
Semi-major axis
7,278.29 km
Eccentricity
0.00316
Inclination
82.9232°
RAAN
173.4237°
Arg. of periapsis
1.3673°
True anomaly
358.74972°
Mean anomaly
358.7576°
Eccentric anomaly
358.75367°
Mean motion
3.49542 °/min
Orbital period
102.99 mins
BSTAR
0.0014174
Loading maneuver chart data...
Computing Atmospheric mass density...

Documentation

Showing up to 5 results
|